Theta_e
317 315 316 316 316 315 315 312 310 310 309 314 307 305 304 305 303 303 302 300 301 299 298 298 297 296 296 295 295 294 294 294 293 292 291 291 291 290 291 289 287 286 285
310 311 310 314 307 305 304 304 305 305 303 303 302 302 300 300 299 299 298 297 297 296 295 296 295 294 294 293 293 292 291 290 288 287 285 282 282 282 282 282 281 281 281
306 307 306 307 303 301 301 301 301 300 299 298 298 298 297 297 296 296 295 294 294 293 292 291 289 287 284 282 281 281 281 281 281 280 280 281 281 280 281 281 281 281 281
303 302 301 300 298 298 297 297 297 297 297 296 295 295 294 293 292 291 290 288 286 283 282 281 281 281 280 280 280 280 280 281 281 281 280 280 280 279 279 278 279 279 279
300 299 298 297 297 297 297 296 295 295 294 292 289 286 284 283 282 282 282 282 281 280 280 280 280 280 280 280 280 280 280 279 279 279 278 278 277 277 276 275 276 276 277
297 296 295 293 293 290 289 288 288 286 285 285 284 283 282 280 280 280 280 280 280 280 280 280 280 280 280 280 280 279 278 276 276 275 275 274 273 273 273 272 271 271 270
295 292 289 287 287 286 284 284 283 283 283 282 281 280 280 279 279 279 279 280 280 280 280 279 280 279 280 280 280 278 278 276 275 273 273 272 271 270 269 270 269 269 269
288 287 285 284 283 282 282 281 281 281 281 280 280 280 279 279 279 279 279 279 279 279 279 279 279 278 277 276 278 277 277 275 275 274 272 271 270 269 268 268 268 268 269
283 282 281 281 281 281 281 280 280 280 280 279 279 279 279 279 279 279 279 279 279 279 278 278 277 277 274 273 274 274 274 273 273 272 271 270 269 269 268 267 268 267 267
280 280 280 280 280 280 280 279 279 279 278 278 278 278 278 278 278 278 279 279 279 278 278 277 276 275 273 272 272 272 271 270 270 270 270 270 269 269 268 267 266 265 264
279 280 280 279 279 279 278 277 277 277 277 277 277 277 277 278 277 277 276 278 278 277 277 276 275 273 271 270 269 269 267 267 269 268 268 267 267 266 266 266 265 264 263
279 279 279 278 278 278 278 277 277 277 278 277 277 277 277 277 278 278 277 274 273 275 274 273 273 271 271 270 270 268 266 267 267 266 265 265 264 264 265 265 265 264 264
279 279 278 278 278 278 278 278 278 278 277 277 277 277 276 277 277 275 275 274 274 274 272 271 271 270 270 269 268 267 266 266 265 264 264 263 263 264 264 264 265 264 265
279 278 278 278 277 277 277 277 277 277 276 275 275 275 276 277 276 274 273 272 273 273 272 271 270 270 269 268 267 266 264 263 263 263 263 263 264 264 264 264 264 264 264
278 278 277 277 276 276 276 275 274 274 274 274 274 275 276 274 272 270 270 272 272 271 271 270 270 269 268 267 266 265 264 264 263 263 263 263 264 264 264 264 264 264 262
278 277 276 275 275 274 274 274 273 273 274 274 274 275 275 272 273 273 273 273 271 270 269 269 267 266 265 264 264 264 263 263 263 263 263 263 264 264 264 265 264 263 261
277 276 275 275 275 275 275 275 274 273 274 275 276 276 276 275 275 273 273 272 270 269 268 267 266 264 263 263 263 263 263 263 263 263 263 264 264 264 264 264 264 263 262
276 275 275 274 274 274 274 274 274 275 275 276 277 277 276 275 274 272 272 270 270 268 267 265 264 263 263 263 263 263 263 263 263 263 264 264 264 264 264 264 264 263 261
275 275 274 274 274 274 274 274 274 274 274 275 277 277 276 275 272 271 270 269 267 266 265 264 263 263 263 263 263 263 263 263 263 264 264 265 265 264 265 264 264 263 261
275 274 274 274 274 274 274 274 274 274 274 275 275 275 276 274 273 271 268 267 266 265 264 264 263 263 263 263 263 263 264 264 264 264 265 265 265 265 264 264 264 262 263
274 274 274 274 274 274 274 273 273 273 273 274 275 274 272 272 271 269 268 267 266 264 264 264 264 263 263 263 264 264 264 264 264 264 265 265 265 265 264 264 262 263 263
274 274 274 274 274 273 273 273 273 273 273 274 275 274 272 271 270 269 267 266 265 264 263 264 264 264 264 264 264 264 264 265 265 265 265 265 265 265 264 264 264 264 264
274 274 273 273 273 273 273 272 272 272 272 274 274 273 272 271 270 268 267 266 265 264 264 264 264 264 264 264 264 264 265 265 265 266 266 265 265 265 264 264 264 264 265
274 273 273 273 273 273 272 272 272 272 272 274 274 273 272 270 269 267 267 266 265 264 264 264 264 264 265 265 265 265 265 266 266 266 266 266 266 265 265 265 265 265 266
273 273 273 273 273 273 272 272 272 272 272 274 274 273 271 270 269 267 266 265 265 264 264 264 264 265 265 265 266 266 266 267 267 267 267 266 266 266 266 265 265 266 268
273 273 273 273 273 273 273 272 272 272 273 274 273 273 271 270 268 267 266 265 265 264 264 264 265 265 265 266 266 267 267 267 268 268 267 267 267 267 266 265 266 267 269
Wind_Speed
33 33 30 28 24 23 22 23 24 23 21 17 19 18 20 19 18 17 17 15 14 13 12 12 13 13 13 12 12 12 12 12 14 18 20 21 23 26 26 27 29 30 31
37 35 39 29 32 34 36 34 29 30 29 29 27 28 28 28 26 25 23 20 19 18 16 13 14 12 10 10 11 11 12 13 15 20 22 23 24 26 29 30 33 33 34
41 42 41 38 36 36 37 35 35 35 35 34 33 34 31 30 27 25 23 21 21 20 18 17 17 16 16 17 17 18 18 19 20 23 26 27 28 31 33 33 35 37 37
44 46 46 43 43 42 41 40 39 37 36 34 34 34 32 30 27 25 23 22 23 23 23 23 22 22 23 22 23 23 24 25 25 26 28 29 31 32 35 39 43 43 46
48 49 48 44 41 40 40 37 36 35 35 33 32 33 33 32 31 27 26 26 24 24 24 23 23 22 22 23 24 25 26 26 27 28 28 31 32 37 38 39 44 48 49
49 48 43 41 40 40 37 36 35 35 34 32 32 32 33 34 29 27 25 24 24 24 24 23 22 22 23 24 24 25 25 24 24 25 27 30 32 36 38 39 41 45 45
46 43 41 39 39 38 36 35 36 35 32 33 33 31 32 31 27 25 24 23 24 25 26 27 27 27 27 28 28 25 26 25 24 24 29 31 34 33 33 39 38 38 42
43 41 38 37 37 36 35 36 35 33 32 31 30 30 28 27 24 23 23 24 25 26 28 30 31 31 30 30 33 32 32 30 28 30 32 33 33 32 31 33 36 44 48
41 39 37 35 36 35 35 34 33 30 30 29 29 27 26 26 24 23 24 26 29 31 30 32 33 33 30 28 32 34 34 32 34 33 31 31 32 32 31 33 38 40 49
39 38 35 34 34 33 32 30 29 29 30 29 30 29 27 26 26 27 29 32 33 36 35 35 34 32 31 29 30 33 33 30 36 36 34 32 32 33 32 31 34 37 40
36 34 33 32 31 30 29 30 30 30 29 29 28 28 27 28 29 30 31 33 33 35 34 35 37 36 33 31 27 30 26 30 36 36 36 35 34 34 33 31 31 32 36
31 31 30 30 29 28 28 29 28 27 27 27 27 28 30 29 27 27 28 28 29 39 37 38 38 35 33 32 31 28 27 32 34 35 35 34 35 37 37 36 34 33 33
27 29 28 26 26 26 25 25 26 28 28 27 26 25 25 26 30 33 34 33 36 37 35 35 36 36 35 34 32 30 30 31 31 32 33 35 37 38 38 38 35 35 37
26 27 26 26 26 26 26 26 24 25 25 26 27 28 30 31 34 33 34 34 36 37 38 38 37 37 38 38 37 34 32 30 30 32 34 37 40 41 40 38 41 44 47
25 25 25 24 24 24 23 24 25 25 24 26 27 28 30 30 28 25 28 35 38 37 40 41 42 40 39 37 34 32 30 30 30 32 36 39 40 39 40 41 44 48 47
21 23 24 23 22 21 21 20 21 22 23 25 28 31 29 25 30 33 35 37 38 40 41 41 40 38 35 33 32 31 30 29 29 33 37 37 37 40 43 44 47 49 48
21 21 20 20 20 21 21 21 22 22 24 28 32 33 32 33 35 35 35 36 37 37 37 37 36 34 32 32 32 32 31 28 30 34 36 36 38 40 44 48 51 53 51
15 17 18 20 21 23 24 25 25 26 27 29 31 32 32 34 35 35 36 37 38 38 36 33 31 30 31 32 32 31 29 28 32 35 36 37 40 43 48 52 55 56 54
11 15 18 20 21 23 24 25 26 27 28 31 33 33 32 33 33 34 36 38 37 36 34 31 30 31 32 31 30 29 27 30 33 36 38 39 42 46 51 54 58 58 57
8 12 15 17 19 21 23 25 26 28 30 32 34 33 33 33 35 37 36 35 34 32 30 29 30 31 31 31 30 27 28 32 34 35 38 41 45 49 54 57 59 58 63
5 9 11 15 18 21 24 26 28 29 30 33 34 32 32 33 34 35 34 33 31 28 27 29 31 32 32 30 28 27 30 33 33 38 40 44 49 54 55 57 58 62 63
2 5 9 14 17 20 23 26 28 28 29 32 32 30 30 30 31 32 31 29 25 23 24 28 31 32 31 28 27 28 30 33 38 39 40 46 51 54 57 59 61 63 63
5 6 9 12 16 20 23 25 28 28 30 32 32 29 29 28 30 31 29 27 22 20 23 28 32 33 29 25 24 27 31 33 37 38 44 48 52 56 57 60 62 63 63
7 8 9 12 15 19 22 25 28 28 30 33 32 29 28 28 30 30 27 25 20 17 21 26 30 31 28 23 24 25 28 31 34 38 42 46 51 54 57 60 61 60 62
9 10 10 12 15 19 22 25 27 28 30 32 31 29 27 28 28 27 25 23 18 15 19 23 27 30 27 23 22 22 24 29 36 39 43 44 45 52 59 61 59 60 60
11 10 11 13 16 19 23 26 27 27 30 32 30 28 27 27 27 26 24 23 18 13 17 21 26 28 26 21 20 22 30 36 43 44 42 43 44 52 58 58 56 57 60
Wind_Direction
101 98 90 77 85 87 79 83 84 84 81 89 86 87 77 72 68 64 66 68 68 68 61 49 46 35 25 16 6 356 348 339 325 313 315 315 312 309 306 305 305 304 302
100 99 96 94 93 91 92 89 86 85 85 83 85 82 80 79 77 75 75 76 75 72 68 61 56 46 32 22 10 358 347 336 325 320 321 320 321 317 317 314 311 309 308
100 95 92 91 88 89 90 90 90 89 89 89 87 85 82 79 78 77 77 76 73 68 60 52 48 40 33 27 19 10 2 353 345 336 330 327 324 320 317 312 310 309 307
97 94 93 93 93 92 91 91 91 92 91 88 87 87 84 81 77 75 71 67 63 59 54 49 43 36 28 20 11 3 354 346 339 333 328 324 323 321 320 320 316 316 315
96 93 91 92 93 92 90 90 90 88 88 88 89 87 84 78 71 66 63 60 58 55 50 43 36 26 18 9 359 352 345 339 334 330 327 325 325 323 324 320 315 314 313
94 93 95 94 92 89 89 89 89 88 87 84 79 77 75 71 66 63 59 56 50 45 39 31 21 11 2 356 352 347 341 340 334 330 328 324 320 321 319 317 315 317 317
94 94 93 92 89 88 87 85 82 79 78 79 80 78 75 71 63 56 50 45 38 31 25 17 9 3 354 351 348 343 336 332 325 324 323 322 318 321 316 315 314 310 306
92 91 90 89 89 89 85 82 80 79 76 75 74 73 72 68 58 50 43 37 30 23 16 10 3 358 355 352 343 341 337 333 328 326 324 321 318 315 312 309 307 306 305
89 89 89 88 86 83 80 78 76 74 72 68 66 65 63 61 51 41 31 26 20 15 8 4 0 356 353 350 338 338 334 332 325 326 322 318 314 312 312 309 311 311 311
92 91 89 87 83 80 78 76 75 73 72 68 63 58 51 45 36 26 19 14 10 6 4 358 355 351 347 344 339 336 330 329 324 322 321 318 315 315 317 318 317 313 313
90 88 86 83 80 79 80 77 72 68 66 62 56 49 41 33 27 20 15 6 4 359 357 353 354 352 347 344 340 338 331 319 323 321 322 325 325 328 330 327 321 314 311
84 81 80 78 76 73 70 69 67 63 58 54 48 40 32 24 15 10 7 7 4 358 357 353 350 347 344 342 337 332 326 325 324 328 331 335 337 337 335 331 328 324 319
83 78 75 73 72 72 69 65 60 53 47 41 37 31 23 16 14 10 5 2 358 353 355 351 347 344 341 341 342 340 336 335 336 338 341 342 341 338 338 338 334 332 327
79 76 73 69 65 60 56 53 50 48 40 34 30 24 17 12 13 4 360 354 354 352 353 348 343 341 344 344 346 350 351 350 348 347 346 344 342 343 344 345 340 339 335
74 71 68 64 61 56 51 48 44 40 32 26 23 18 14 16 7 1 359 355 355 351 347 343 344 345 347 349 350 353 352 351 350 350 348 346 345 346 346 346 343 340 334
76 73 69 65 61 56 51 46 43 37 29 23 19 16 15 10 4 1 358 356 353 348 346 347 351 353 355 355 355 355 356 354 354 351 350 348 347 347 345 345 345 342 332
71 70 68 64 58 51 46 41 39 35 26 20 14 12 9 5 4 0 356 353 350 348 353 355 356 359 360 360 357 355 354 356 353 353 352 352 349 347 346 345 345 342 332
67 66 60 53 45 39 33 28 23 19 16 14 10 8 6 4 2 357 353 352 353 359 1 1 3 3 360 357 355 353 354 354 353 353 352 351 348 346 345 343 341 338 330
67 58 52 43 36 30 25 21 17 14 12 9 6 5 5 5 0 356 355 355 359 3 6 8 5 359 355 353 352 353 353 352 350 348 350 348 347 345 343 341 339 337 329
59 50 42 33 26 21 17 14 11 9 7 5 3 2 2 1 358 359 359 0 2 5 6 6 3 359 355 353 353 353 353 353 350 348 347 347 347 345 342 340 339 330 332
45 37 28 21 16 12 10 7 6 4 3 3 2 0 359 359 358 357 358 360 1 4 6 5 2 358 353 351 351 352 353 353 349 345 344 346 346 343 342 340 335 335 333
328 4 11 9 5 5 3 2 360 360 0 359 359 357 357 356 355 356 358 359 1 3 4 360 358 356 354 351 349 350 350 348 348 346 348 348 347 345 343 341 338 337 336
281 324 348 354 355 357 357 356 354 356 356 356 355 354 354 354 354 356 357 357 358 2 1 357 356 357 356 352 352 350 348 349 352 350 347 345 344 345 344 340 340 340 338
273 302 326 337 344 349 351 349 350 352 352 352 352 351 352 353 354 356 356 356 356 0 358 358 360 360 357 356 354 352 350 348 346 345 347 345 342 342 342 341 343 342 340
273 292 310 324 336 342 344 343 346 348 349 349 348 348 350 351 353 354 354 354 354 354 356 360 1 1 359 355 352 352 349 346 344 344 344 340 338 341 343 343 343 343 345
268 286 305 320 331 335 336 338 342 345 345 346 345 346 347 349 351 352 353 352 351 351 354 358 360 359 354 349 348 347 349 350 347 352 345 342 337 339 342 343 345 347 349